Home   Weather   Cuiabá   Past weeks

Flag for Brazil Past Weather in Cuiabá, Mato Grosso, Brazil — Yesterday and Last 2 Weeks

Now
88 °F

Passing clouds.


Feels Like: 91 °F
Forecast: 74 / 83 °F
Wind: 9 mph from North

Location: Cuiaba Aeroporto

Current Time: Feb 26, 2017 at 1:05:20 pm

Latest Report: Feb 26, 2017 at 12:00 pm


Visibility: N/A

Pressure: 29.92 "Hg

Humidity: 52%

Dew Point: 68 °F

Location of CuiabáLocation

Past Weather in Cuiabá — Graph

°F

Cuiabá Temperature Yesterday

Maximum temperature yesterday: 84 °F (at 1:00 pm)
Minimum temperature yesterday: 72 °F (at 3:00 am)
Average temperature yesterday: 78 °F

High & Low Weather Summary for the Past Weeks

 TemperatureHumidityPressure
High95 °F (Feb 23, 2:00 pm)94% (Feb 12, 12:00 am)30.07 "Hg (Feb 12, 12:00 am)
Low72 °F (Feb 21, 6:00 am)32% (Feb 24, 4:00 pm)29.65 "Hg (Feb 13, 5:00 pm)
Average80 °F77%29.89 "Hg
* Reported Feb 11 1:00 pm — Feb 26 12:00 pm, Cuiabá, Weather by CustomWeather, © 2017

Note: Actual official high and low records may vary slightly from our data, if they occured in-between our weather recording intervals... More about our weather records

Advertising

Cuiabá Weather History for the Previous 24 Hours

Scroll right to see more
 ConditionsComfort  
Time TempWeatherWind HumidityBarometerVisibility
12:00 pm
Sun, Feb 26
88 °FPassing clouds.9 mph52%29.92 "HgN/A
11:00 am86 °FPassing clouds.9 mph55%29.95 "HgN/A
10:00 am82 °FSunny.8 mph62%29.95 "Hg10 mi
9:00 am81 °FSunny.9 mph66%29.95 "Hg10 mi
8:00 am79 °FSunny.6 mph74%29.92 "Hg10 mi
7:00 am77 °FSunny.6 mph79%29.92 "Hg10 mi
6:00 am75 °FSunny.5 mph83%29.89 "Hg10 mi
5:00 am73 °FClear.3 mph94%29.89 "Hg10 mi
4:00 am73 °FClear.5 mph94%29.86 "Hg10 mi
3:00 am73 °FClear.6 mph94%29.86 "Hg10 mi
2:00 am73 °FClear.9 mph89%29.86 "Hg10 mi
1:00 am75 °FClear.7 mph89%29.89 "Hg10 mi
12:00 am75 °FClear.7 mph89%29.89 "Hg10 mi
11:00 pm
Sat, Feb 25
75 °FClear.7 mph89%29.92 "Hg10 mi
10:00 pm77 °FPassing clouds.9 mph83%29.92 "HgN/A
9:00 pm79 °FPassing clouds.2 mph84%29.89 "HgN/A
8:00 pm79 °FPassing clouds.2 mph79%29.83 "HgN/A
7:00 pm81 °FPassing clouds.2 mph74%29.83 "HgN/A
6:00 pm81 °FScattered clouds.2 mph79%29.80 "HgN/A
5:00 pm84 °FScattered clouds.6 mph66%29.80 "HgN/A
4:00 pm84 °FScattered clouds.6 mph62%29.80 "HgN/A
3:00 pm84 °FScattered clouds.7 mph66%29.83 "HgN/A
2:00 pm84 °FScattered clouds.10 mph66%29.86 "HgN/A
1:00 pm84 °FScattered clouds.8 mph66%29.89 "HgN/A
Weather by CustomWeather, © 2017

See weather overviewHow to use our weather pages

LIVE ANNULAR SOLAR ECLIPSE – Watch the eclipse as it happens